Leonardtown, MD

10:54 PM EDT on October 18, 2017 (GMT -0400)
Leonardtown

Weather History for K2W6 - December, 2012

Change the Weather History Date:

Saturday, December 8, 2012

  Actual Average (KNHK) Record (KNHK)
Temperature  
Mean Temperature 48 °F -  
Max Temperature 53 °F 52 °F 74 °F (1978)
Min Temperature 42 °F 34 °F 22 °F (1977)
Degree Days  
Heating Degree Days 18    
Moisture  
Dew Point 47 °F    
Average Humidity 93    
Maximum Humidity 100    
Minimum Humidity 87    
Precipitation  
Precipitation 0.00 in - - ()
Sea Level Pressure  
Sea Level Pressure 29.96 in    
Wind  
Wind Speed 2 mph (SW)    
Max Wind Speed 8 mph    
Max Gust Speed -    
Visibility 3 miles    
Events      
Averages and records for this station are not official NWS values.
T = Trace of Precipitation, MM = Missing Value Source: NWS Daily Summary

Daily Weather History Graph

Daily Weather History Graph

Search for Another Location

Airport or City:

Trip Planner

Search our weather history database for the weather conditions in past years. The results will help you decide how hot, cold, wet, or windy it might be!

Date:

Astronomy

Dec. 08, 2012 Rise Set
Actual Time 7:10 AM EST 4:45 PM EST
Civil Twilight 6:41 AM EST 5:15 PM EST
Nautical Twilight 6:08 AM EST 5:48 PM EST
Astronomical Twilight 5:36 AM EST 6:20 PM EST
Moon 1:36 AM EST (12/8) 1:11 PM EST (12/8)
Length of Visible Light 10h 33m
Length of Day
9h 34m
Waning Crescent, 28% of the Moon is Illuminated
Dec 8
Waning Crescent
Dec 13
New
Dec 20
First Quarter
Dec 28
Full
Jan 4
Last Quarter

Hourly Weather History & Observations

Time (EST) Temp. Windchill Dew Point Humidity Pressure Visibility Wind Dir Wind Speed Gust Speed Precip Events Conditions
12:00 AM 46.4 °F - 44.6 °F 93% 29.99 in 5.0 mi Calm Calm - N/A   Overcast
12:21 AM 46.4 °F - 44.6 °F 93% 29.99 in 5.0 mi Calm Calm - N/A   Overcast
12:42 AM 46.4 °F - 46.4 °F 100% 29.98 in 5.0 mi Calm Calm - N/A   Overcast
1:03 AM 48.2 °F - 46.4 °F 93% 29.97 in 4.0 mi Calm Calm - N/A   Overcast
1:46 AM 48.2 °F - 46.4 °F 93% 29.97 in 7.0 mi SW 4.6 mph - N/A   Overcast
2:07 AM 48.2 °F - 46.4 °F 93% 29.96 in 4.0 mi SSW 3.5 mph - N/A   Overcast
2:29 AM 50.0 °F - 46.4 °F 87% 29.96 in 4.0 mi Calm Calm - N/A   Overcast
2:50 AM 50.0 °F - 46.4 °F 87% 29.95 in 5.0 mi SW 3.5 mph - N/A   Overcast
3:11 AM 50.0 °F - 46.4 °F 87% 29.95 in 5.0 mi Calm Calm - N/A   Overcast
3:33 AM 50.0 °F - 46.4 °F 87% 29.94 in 7.0 mi SW 3.5 mph - N/A   Overcast
3:54 AM 50.0 °F - 46.4 °F 87% 29.94 in 5.0 mi Calm Calm - N/A   Overcast
4:15 AM 50.0 °F - 46.4 °F 87% 29.93 in 5.0 mi Calm Calm - N/A   Overcast
4:58 AM 50.0 °F - 46.4 °F 87% 29.93 in 5.0 mi WSW 3.5 mph - N/A   Overcast
5:19 AM 50.0 °F - 46.4 °F 87% 29.93 in 4.0 mi WSW 3.5 mph - N/A   Overcast
5:40 AM 50.0 °F - 48.2 °F 94% 29.93 in 4.0 mi Calm Calm - N/A   Overcast
6:02 AM 50.0 °F - 48.2 °F 94% 29.93 in 4.0 mi South 3.5 mph - N/A   Overcast
6:23 AM 50.0 °F - 48.2 °F 94% 29.94 in 1.2 mi Calm Calm - N/A   Overcast
6:44 AM 50.0 °F - 48.2 °F 94% 29.94 in 0.8 mi WSW 4.6 mph - N/A   Overcast
7:05 AM 50.0 °F - 48.2 °F 94% 29.94 in 1.0 mi WSW 4.6 mph - N/A   Overcast
7:27 AM 50.0 °F - 48.2 °F 94% 29.94 in 0.5 mi SW 3.5 mph - N/A   Overcast
7:48 AM 50.0 °F - 48.2 °F 94% 29.95 in 0.2 mi SW 3.5 mph - N/A   Overcast
8:09 AM 50.0 °F - 48.2 °F 94% 29.95 in 0.2 mi WSW 5.8 mph - N/A   Overcast
8:30 AM 50.0 °F - 48.2 °F 94% 29.96 in 0.5 mi West 8.1 mph - N/A   Overcast
8:52 AM 50.0 °F - 48.2 °F 94% 29.96 in 0.5 mi WSW 3.5 mph - N/A   Overcast
9:13 AM 50.0 °F - 48.2 °F 94% 29.96 in 0.8 mi WSW 5.8 mph - N/A   Overcast
9:34 AM 50.0 °F - 48.2 °F 94% 29.98 in 3.0 mi West 6.9 mph - N/A   Overcast
10:17 AM 50.0 °F - 48.2 °F 94% 29.97 in 1.8 mi SSW 4.6 mph - N/A   Overcast
10:38 AM 50.0 °F - 48.2 °F 94% 29.98 in 4.0 mi WSW 6.9 mph - N/A   Overcast
10:59 AM 50.0 °F - 48.2 °F 94% 29.97 in 2.0 mi WSW 5.8 mph - N/A   Overcast
11:20 AM 50.0 °F - 48.2 °F 94% 29.97 in 1.2 mi SW 5.8 mph - N/A   Overcast
11:42 AM 50.0 °F - 48.2 °F 94% 29.96 in 2.5 mi SW 5.8 mph - N/A   Overcast
12:03 PM 50.0 °F - 48.2 °F 94% 29.96 in 2.5 mi WSW 5.8 mph - N/A   Overcast
12:24 PM 50.0 °F - 48.2 °F 94% 29.95 in 2.0 mi SSW 4.6 mph - N/A   Overcast
12:45 PM 50.0 °F - 48.2 °F 94% 29.94 in 2.0 mi SW 4.6 mph - N/A   Overcast
1:07 PM 50.0 °F - 48.2 °F 94% 29.94 in 5.0 mi SW 5.8 mph - N/A   Overcast
1:49 PM 51.8 °F - 50.0 °F 94% 29.93 in 7.0 mi SSW 4.6 mph - N/A   Overcast
2:10 PM 51.8 °F - 50.0 °F 94% 29.93 in 5.0 mi SSW 4.6 mph - N/A   Overcast
2:31 PM 51.8 °F - 50.0 °F 94% 29.94 in 7.0 mi SSW 3.5 mph - N/A   Overcast
2:53 PM 51.8 °F - 50.0 °F 94% 29.94 in 7.0 mi WSW 4.6 mph - N/A   Overcast
3:14 PM 51.8 °F - 50.0 °F 94% 29.93 in 7.0 mi Calm Calm - N/A   Overcast
3:35 PM 51.8 °F - 50.0 °F 94% 29.94 in 7.0 mi SW 3.5 mph - N/A   Overcast
3:56 PM 53.6 °F - 50.0 °F 88% 29.94 in 7.0 mi Calm Calm - N/A   Overcast
4:18 PM 51.8 °F - 50.0 °F 94% 29.95 in 7.0 mi Calm Calm - N/A   Scattered Clouds
4:39 PM 51.8 °F - 48.2 °F 88% 29.95 in 3.0 mi Calm Calm - N/A   Scattered Clouds
5:00 PM 50.0 °F - 48.2 °F 94% 29.96 in 0.2 mi Calm Calm - N/A   Unknown
5:21 PM 50.0 °F - 46.4 °F 87% 29.96 in 0.5 mi Calm Calm - N/A   Overcast
5:43 PM 48.2 °F - 46.4 °F 93% 29.96 in 0.2 mi Calm Calm - N/A   Overcast
6:04 PM 46.4 °F 45.2 °F 44.6 °F 93% 29.96 in 0.2 mi SE 3.5 mph - N/A   Overcast
6:25 PM 48.2 °F - 46.4 °F 93% 29.96 in 1.0 mi ESE 5.8 mph - N/A   Mostly Cloudy
6:46 PM 50.0 °F - 46.4 °F 87% 29.97 in 2.5 mi Calm Calm - N/A   Clear
7:08 PM 46.4 °F - 44.6 °F 93% 29.98 in 0.5 mi Calm Calm - N/A   Mostly Cloudy
7:29 PM 46.4 °F - 44.6 °F 93% 29.99 in 0.5 mi Calm Calm - N/A   Overcast
7:50 PM 46.4 °F 45.2 °F 44.6 °F 93% 29.99 in 0.8 mi SE 3.5 mph - N/A   Overcast
8:11 PM 46.4 °F - 44.6 °F 93% 29.99 in 1.2 mi Calm Calm - N/A   Scattered Clouds
8:33 PM 44.6 °F - 44.6 °F 100% 29.99 in 0.5 mi Calm Calm - N/A   Overcast
8:54 PM 46.4 °F - 44.6 °F 93% 29.99 in 1.0 mi Calm Calm - N/A   Mostly Cloudy
9:15 PM 46.4 °F - 46.4 °F 100% 30.00 in 1.8 mi Calm Calm - N/A   Unknown
9:36 PM 44.6 °F - 42.8 °F 93% 30.00 in 0.8 mi Calm Calm - N/A   Scattered Clouds
9:58 PM 46.4 °F - 46.4 °F 100% 30.00 in 3.0 mi Calm Calm - N/A   Clear
10:19 PM 46.4 °F - 44.6 °F 93% 30.00 in 1.8 mi Calm Calm - N/A   Unknown
10:40 PM 44.6 °F - 42.8 °F 93% 30.01 in 0.8 mi Calm Calm - N/A   Mostly Cloudy
11:23 PM 42.8 °F - 42.8 °F 100% 30.01 in 1.5 mi Calm Calm - N/A   Overcast
11:44 PM 44.6 °F - 42.8 °F 93% 30.02 in 2.0 mi Calm Calm - N/A   Overcast